Location: Beranovka
(49.9415°N, 12.8435°E)
Time: 23:58:35
(UTC+00:00)

Cosmos 1703 Rocket - Pass Details

Date: 10 August 2020
Orbit: 605 x 634 km, 82.5° (Epoch: 23 September)

Event Time Altitude Azimuth Distance (km) Brightness Sun altitude
Rises 21:13:52 0° 345° (NNW) 2,890 8.4 -19.7°
Reaches altitude 10° 21:16:09 10° 340° (NNW) 1,977 7.3 -19.9°
Maximum altitude 21:20:21 48° 266° (W) 804 4.2 -20.2°
Enters shadow 21:22:00 31° 212° (SSW) 1,073 4.5 -20.3°
